531  
ASUS43 KFSD 141410  
RWRFSD  
 
WEATHER ROUNDUP FOR SE SOUTH DAKOTA/SW MINNESOTA/NW IOWA  
NATIONAL WEATHER SERVICE SIOUX FALLS SD  
900 AM CDT TUE AUG 14 2018  
 
NOTE: "FAIR" INDICATES FEW OR NO CLOUDS BELOW 12,000 FEET WITH NO  
SIGNIFICANT WEATHER AND OR S TO VISIBILITY
.  
 
 
SDZ038>040-050-052>070-141500-  
SOUTHEAST SOUTH DAKOTA  
 
CITY SKY/WX TMP DP RH WIND PRES REMARKS
 
BROOKINGS MOSUNNY 72 69 90 NE5 29.96S  
CHAMBERLAIN CLOUDY 66 62 85 N6 29.97S  
HURON CLOUDY 65 60 84 N10 29.94S  
MADISON FAIR 73 73 100 CALM 29.96R  
MITCHELL MOSUNNY 72 69 90 W3 29.93S  
SIOUX FALLS CLOUDY 78 71 79 CALM 29.94S  
WINNER CLOUDY 64 56 75 NW9 30.00R  
YANKTON MOSUNNY 75 70 84 S5 29.95S  

 
 
MNZ071-072-080-081-089-090-097-098-141500-  
SOUTHWEST MINNESOTA  
 
CITY SKY/WX TMP DP RH WIND PRES REMARKS
 
FAIRMONT MOSUNNY 73 67 81 S6 29.94F  
JACKSON PTSUNNY 73 66 78 CALM 29.95S  
LUVERNE MOSUNNY 72 68 88 S3 29.96S  
MARSHALL MOSUNNY 67 60 78 NW12 29.96R  
MONTEVIDEO MOSUNNY 66 59 77 N9 29.96R  
PIPESTONE CLOUDY 73 72 94 CALM 29.96R  
REDWOOD FALLS CLOUDY 74 69 85 VRB3 29.93S  
TRACY CLOUDY 69 65 84 NW5 29.95S  
WINDOM MOSUNNY 75 66 73 S3 29.94S  
WORTHINGTON MOSUNNY 77 70 79 S5 29.96F  

 
 
IAZ001>003-012>014-020>022-031-032-NEZ013-014-SDZ071-141500-  
NORTHWEST IOWA  
 
CITY SKY/WX TMP DP RH WIND PRES REMARKS
 
CHEROKEE PTSUNNY 73 71 93 CALM 29.95S  
DENISON CLOUDY 72 72 100 MISG 29.96S FOG  
ESTHERVILLE CLOUDY 72 68 87 S5 29.94S  
ORANGE CITY CLOUDY 73 72 94 CALM 29.95F  
SHELDON MOSUNNY 73 73 100 CALM 29.94S  
SIOUX CITY CLOUDY 74 71 91 CALM 29.94S  
SPENCER PTSUNNY 76 68 76 CALM 29.95S  
STORM LAKE CLOUDY 72 68 88 CALM 29.96R  

 
 
ABBREVIATIONS USED IN REMARKS  
TC - TEMPERATURE IN CELSIUS  
WCI - WIND CHILL INDEX  
HX - HEAT INDEX  
VSB - VISIBILITY  
 
 
 
CLICK HERE TO GO TO PREVIOUS BULLETINS.

The Nexlab SD Page
The Nexlab IA Page
The Nexlab MN Page
The Nexlab NE Page Main Text Page